Weather History for Appleton, MN

Change the Weather History Date:

Friday, November 8, 2013

  Actual Average Record
Temperature  
Mean Temperature 34 °F -  
Max Temperature 44 °F 41 °F 82 °F (1999)
Min Temperature 23 °F 24 °F 1 °F (2003)
Degree Days  
Heating Degree Days 32    
Moisture  
Dew Point 29 °F    
Average Humidity 77    
Maximum Humidity 100    
Minimum Humidity 49    
Precipitation  
Precipitation 0.00 in - - ()
Sea Level Pressure  
Sea Level Pressure 29.79 in    
Wind  
Wind Speed 9 mph (SSE)    
Max Wind Speed 23 mph    
Max Gust Speed 31 mph    
Visibility 10 miles    
Events Rain , Snow    
Averages and records for this station are not official NWS values.
T = Trace of Precipitation, MM = Missing Value Source: NWS Daily Summary

Daily Weather History Graph

Daily Weather History Graph

Search for Another Location

Airport:

Trip Planner

Search our weather history database for the weather conditions in past years. The results will help you decide how hot, cold, wet, or windy it might be!

Date:

Astronomy

Nov. 08, 2013 Rise Set
Actual Time 7:13 AM CST 5:01 PM CST
Civil Twilight 6:41 AM CST 5:33 PM CST
Nautical Twilight 6:06 AM CST 6:08 PM CST
Astronomical Twilight 5:31 AM CST 6:43 PM CST
Moon 12:09 PM CST (11/8) 10:25 PM CST (11/8)
Length of Visible Light 10h 51m
Length of Day
9h 48m
Waxing Crescent, 33% of the Moon is Illuminated
Nov 8
Waxing Crescent
Nov 9
First Quarter
Nov 17
Full
Nov 25
Last Quarter
Dec 2
New

Hourly Weather History & Observations

Time (CST) Temp. Windchill Dew Point Humidity Pressure Visibility Wind Dir Wind Speed Gust Speed Precip Events Conditions
12:14 AM 23.0 °F 18.4 °F 21.2 °F 93% 30.14 in 10.0 mi South 3.5 mph - N/A   Clear
12:34 AM 24.8 °F 20.5 °F 23.0 °F 93% 30.14 in 10.0 mi South 3.5 mph - N/A   Clear
12:53 AM 24.8 °F - 21.2 °F 86% 30.14 in 10.0 mi Calm Calm - N/A   Clear
1:13 AM 24.8 °F 20.5 °F 21.2 °F 86% 30.13 in 10.0 mi SSE 3.5 mph - N/A   Clear
1:33 AM 24.8 °F 20.5 °F 21.2 °F 86% 30.13 in 10.0 mi South 3.5 mph - N/A   Clear
1:53 AM 24.8 °F 20.5 °F 23.0 °F 93% 30.12 in 10.0 mi South 3.5 mph - N/A   Clear
2:13 AM 26.6 °F 22.6 °F 24.8 °F 93% 30.12 in 10.0 mi SE 3.5 mph - N/A   Clear
2:33 AM 26.6 °F 22.6 °F 24.8 °F 93% 30.11 in 10.0 mi SE 3.5 mph - N/A   Clear
2:53 AM 24.8 °F 19.1 °F 23.0 °F 93% 30.09 in 10.0 mi SE 4.6 mph - N/A   Clear
3:13 AM 26.6 °F 21.2 °F 24.8 °F 93% 30.09 in 10.0 mi SE 4.6 mph - N/A   Clear
3:33 AM 24.8 °F 19.1 °F 21.2 °F 86% 30.08 in 10.0 mi SE 4.6 mph - N/A   Clear
3:54 AM 26.6 °F 22.6 °F 24.8 °F 93% 30.08 in 10.0 mi SE 3.5 mph - N/A   Clear
4:13 AM 24.8 °F 16.9 °F 24.8 °F 100% 30.06 in 10.0 mi SE 6.9 mph - N/A   Clear
4:33 AM 26.6 °F 20.0 °F 24.8 °F 93% 30.05 in 10.0 mi SE 5.8 mph - N/A   Clear
4:54 AM 26.6 °F 19.1 °F 24.8 °F 93% 30.04 in 10.0 mi SE 6.9 mph - N/A   Clear
5:13 AM 26.6 °F 16.2 °F 24.8 °F 93% 30.02 in 10.0 mi SE 11.5 mph - N/A   Clear
5:33 AM 26.6 °F 17.5 °F 24.8 °F 93% 30.01 in 10.0 mi SE 9.2 mph - N/A   Clear
5:53 AM 28.4 °F 18.5 °F 24.8 °F 86% 30.00 in 10.0 mi SE 11.5 mph - N/A   Clear
6:14 AM 28.4 °F 18.5 °F 24.8 °F 86% 29.99 in 10.0 mi SE 11.5 mph - N/A   Clear
6:33 AM 28.4 °F 19.1 °F 24.8 °F 86% 29.99 in 10.0 mi SE 10.4 mph - N/A   Clear
6:53 AM 30.2 °F 19.8 °F 26.6 °F 86% 29.97 in 10.0 mi SE 13.8 mph - N/A   Scattered Clouds
7:14 AM 30.2 °F 19.8 °F 26.6 °F 86% 29.94 in 10.0 mi ESE 13.8 mph - N/A Snow Light Snow
7:33 AM 30.2 °F 20.8 °F 26.6 °F 86% 29.93 in 10.0 mi SE 11.5 mph - N/A   Scattered Clouds
7:53 AM 30.2 °F 19.3 °F 26.6 °F 86% 29.91 in 10.0 mi SE 15.0 mph 19.6 mph N/A   Scattered Clouds
8:13 AM 32.0 °F 21.2 °F 26.6 °F 80% 29.90 in 10.0 mi SE 16.1 mph 21.9 mph N/A   Clear
8:33 AM 33.8 °F 24.3 °F 26.6 °F 75% 29.89 in 10.0 mi SE 13.8 mph 20.7 mph N/A   Scattered Clouds
8:53 AM 33.8 °F 24.3 °F 26.6 °F 75% 29.87 in 10.0 mi SE 13.8 mph - N/A   Clear
9:13 AM 35.6 °F 26.6 °F 26.6 °F 70% 29.84 in 10.0 mi SE 13.8 mph - N/A   Clear
9:33 AM 35.6 °F 26.2 °F 26.6 °F 70% 29.83 in 10.0 mi SE 15.0 mph 20.7 mph N/A   Clear
9:53 AM 37.4 °F 28.2 °F 26.6 °F 65% 29.81 in 10.0 mi SE 16.1 mph - N/A   Clear
10:13 AM 39.2 °F 30.5 °F 24.8 °F 56% 29.79 in 10.0 mi SE 16.1 mph 21.9 mph N/A   Clear
10:33 AM 39.2 °F 31.2 °F 24.8 °F 56% 29.78 in 10.0 mi SE 13.8 mph 20.7 mph N/A   Mostly Cloudy
10:53 AM 39.2 °F 30.5 °F 24.8 °F 56% 29.76 in 10.0 mi SE 16.1 mph - N/A   Mostly Cloudy
11:14 AM 42.8 °F 33.8 °F 24.8 °F 49% 29.74 in 10.0 mi SE 21.9 mph 27.6 mph N/A   Scattered Clouds
11:34 AM 42.8 °F 36.2 °F 24.8 °F 49% 29.74 in 10.0 mi SSE 12.7 mph 25.3 mph N/A   Mostly Cloudy
11:54 AM 42.8 °F 34.3 °F 24.8 °F 49% 29.70 in 10.0 mi SE 19.6 mph 28.8 mph N/A   Scattered Clouds
12:13 PM 42.8 °F 33.5 °F 26.6 °F 53% 29.67 in 10.0 mi SE 23.0 mph 31.1 mph N/A   Scattered Clouds
12:34 PM 39.2 °F 29.8 °F 28.4 °F 65% 29.65 in 10.0 mi SE 18.4 mph 31.1 mph N/A Rain Light Rain
12:53 PM 42.8 °F 34.8 °F 26.6 °F 53% 29.65 in 10.0 mi SSE 17.3 mph 25.3 mph N/A   Light Drizzle
1:13 PM 42.8 °F 35.8 °F 28.4 °F 57% 29.66 in 10.0 mi SSE 13.8 mph 26.5 mph N/A   Clear
1:34 PM 44.6 °F 37.8 °F 28.4 °F 53% 29.64 in 10.0 mi SSE 15.0 mph 25.3 mph N/A   Clear
1:53 PM 44.6 °F 36.9 °F 28.4 °F 53% 29.61 in 10.0 mi SSE 18.4 mph 28.8 mph N/A   Clear
2:13 PM 44.6 °F 36.9 °F 30.2 °F 57% 29.62 in 10.0 mi SSE 18.4 mph 24.2 mph N/A   Clear
2:33 PM 44.6 °F 37.2 °F 30.2 °F 57% 29.61 in 10.0 mi SSE 17.3 mph 24.2 mph N/A   Clear
2:53 PM 44.6 °F 38.1 °F 30.2 °F 57% 29.60 in 10.0 mi SSE 13.8 mph 21.9 mph N/A   Clear
3:13 PM 44.6 °F 38.4 °F 30.2 °F 57% 29.59 in 10.0 mi SSE 12.7 mph 21.9 mph N/A   Clear
3:33 PM 44.6 °F 38.4 °F 32.0 °F 61% 29.59 in 10.0 mi SSE 12.7 mph 24.2 mph N/A   Clear
3:54 PM 44.6 °F 38.8 °F 32.0 °F 61% 29.59 in 10.0 mi SSE 11.5 mph - N/A   Clear
4:13 PM 44.6 °F 38.8 °F 32.0 °F 61% 29.59 in 10.0 mi SSE 11.5 mph - N/A   Clear
4:35 PM 42.8 °F 38.0 °F 32.0 °F 66% 29.58 in 10.0 mi SSE 8.1 mph - N/A   Clear
4:54 PM 42.8 °F 37.5 °F 32.0 °F 66% 29.58 in 10.0 mi SSE 9.2 mph - N/A   Clear
5:14 PM 41.0 °F 35.8 °F 33.8 °F 76% 29.57 in 10.0 mi SSE 8.1 mph - N/A   Mostly Cloudy
5:33 PM 42.8 °F 38.0 °F 33.8 °F 70% 29.57 in 10.0 mi SSE 8.1 mph - N/A   Overcast
5:53 PM 42.8 °F 37.0 °F 33.8 °F 70% 29.57 in 10.0 mi SSE 10.4 mph - N/A   Overcast
6:13 PM 41.0 °F 37.1 °F 33.8 °F 76% 29.57 in 10.0 mi SSE 5.8 mph - N/A   Overcast
6:33 PM 41.0 °F 38.0 °F 35.6 °F 81% 29.58 in 10.0 mi South 4.6 mph - N/A Rain Light Rain
6:53 PM 41.0 °F 35.8 °F 35.6 °F 81% 29.58 in 10.0 mi SSW 8.1 mph - N/A   Light Drizzle
7:13 PM 42.8 °F 38.0 °F 35.6 °F 76% 29.59 in 10.0 mi SW 8.1 mph - N/A   Overcast
7:33 PM 42.8 °F 38.0 °F 37.4 °F 81% 29.59 in 10.0 mi WSW 8.1 mph - N/A   Overcast
7:54 PM 44.6 °F 39.2 °F 39.2 °F 81% 29.59 in 10.0 mi WSW 10.4 mph - N/A   Overcast
8:13 PM 44.6 °F 37.8 °F 39.2 °F 81% 29.60 in 10.0 mi West 15.0 mph - N/A   Overcast
8:33 PM 44.6 °F 37.8 °F 39.2 °F 81% 29.60 in 10.0 mi West 15.0 mph - N/A Rain Light Rain
8:54 PM 44.6 °F 36.9 °F 39.2 °F 81% 29.61 in 10.0 mi West 18.4 mph 26.5 mph N/A   Mostly Cloudy
9:14 PM 42.8 °F 35.4 °F 39.2 °F 87% 29.61 in 10.0 mi WNW 15.0 mph - N/A   Overcast
9:33 PM 42.8 °F 36.2 °F 39.2 °F 87% 29.62 in 10.0 mi WNW 12.7 mph 17.3 mph N/A   Overcast
9:53 PM 42.8 °F 37.0 °F 37.4 °F 81% 29.62 in 10.0 mi West 10.4 mph - N/A   Overcast
10:13 PM 41.0 °F 34.7 °F 37.4 °F 87% 29.63 in 10.0 mi West 10.4 mph - N/A   Mostly Cloudy
10:33 PM 39.2 °F 32.5 °F 37.4 °F 93% 29.65 in 10.0 mi West 10.4 mph - N/A   Clear
10:54 PM 39.2 °F 32.0 °F 35.6 °F 87% 29.65 in 10.0 mi West 11.5 mph - N/A   Clear
11:13 PM 39.2 °F 32.5 °F 35.6 °F 87% 29.65 in 10.0 mi West 10.4 mph - N/A   Clear
11:33 PM 37.4 °F 29.8 °F 35.6 °F 93% 29.66 in 10.0 mi West 11.5 mph - N/A   Scattered Clouds
11:53 PM 39.2 °F 32.0 °F 37.4 °F 93% 29.67 in 10.0 mi West 11.5 mph - N/A   Overcast